GW4499 Weather Reports


Display with metric or nautical units.
time (UTC)temp
F
wind
direction
speed
MPH
gust
MPH
rain 1hr
in
rain 24hr
in
rain mn
in
humidity
%
barometer
mb
20260906111520 63 0.0 0.0 0.00 0.00 0.00 81 1018.8
20260906110520 63 0.0 0.0 0.00 0.00 0.00 80 1019.1
20260906105519 64 0.0 0.0 0.00 0.00 0.00 80 1019.4
20260906104520 64 0.0 0.0 0.00 0.00 0.00 78 1019.3
20260906103519 64 0.0 0.0 0.00 0.00 0.00 76 1019.3
20260906102519 64 0.0 1.0 0.00 0.00 0.00 72 1019.2
20260906101540 64 0.0 0.0 0.00 0.00 0.00 72 1019.4
20260906100520 64 0.0 0.0 0.00 0.00 0.00 71 1019.7
20260906095519 64 0.0 0.0 0.00 0.00 0.00 71 1019.5
20260906094519 65 0.0 0.0 0.00 0.00 0.00 70 1019.4
20260906093559 65 0.0 0.0 0.00 0.00 0.00 69 1019.6
20260906092519 66 0.0 0.0 0.00 0.00 0.00 68 1019.8
20260906091520 66 0.0 0.0 0.00 0.00 0.00 68 1019.7
20260906090520 66 0.0 0.0 0.00 0.00 0.00 67 1019.5
20260906085519 66 0.0 0.0 0.00 0.00 0.00 66 1019.4
20260906084519 67 0.0 0.0 0.00 0.00 0.00 65 1019.8
20260906083519 67 0.0 0.0 0.00 0.00 0.00 64 1019.5
20260906082519 67 0.0 0.0 0.00 0.00 0.00 63 1019.6
20260906081519 68 0.0 0.0 0.00 0.00 0.00 62 1019.7
20260906080519 68 0.0 0.0 0.00 0.00 0.00 62 1020.0
20260906075520 68 0.0 0.0 0.00 0.00 0.00 63 1020.0
20260906074519 68 0.0 0.0 0.00 0.00 0.00 60 1019.8
20260906073519 68 0.0 0.0 0.00 0.00 0.00 59 1019.6
20260906072520 68 0.0 1.0 0.00 0.00 0.00 58 1019.5
20260906071519 68 315 1.0 2.0 0.00 0.00 0.00 56 1019.5
20260906070519 68 0.0 0.0 0.00 0.00 0.00 57 1019.8
20260906065519 68 0.0 0.0 0.00 0.00 0.00 60 1019.9
20260906064519 68 0.0 0.0 0.00 0.00 0.00 58 1019.8
20260906063519 68 0.0 0.0 0.00 0.00 0.00 58 1019.7
20260906062519 69 0.0 0.0 0.00 0.00 0.00 57 1019.6
20260906061519 69 0.0 0.0 0.00 0.00 0.00 56 1019.7
20260906060520 70 0.0 0.0 0.00 0.00 0.00 55 1019.3
20260906055519 70 0.0 1.0 0.00 0.00 0.00 54 1019.1
20260906054539 70 0.0 0.0 0.00 0.00 0.00 52 1019.2
20260906053539 70 0.0 0.0 0.00 0.00 0.00 51 1019.5
20260906052519 70 0.0 0.0 0.00 0.00 0.00 50 1019.6
20260906051519 70 0.0 1.0 0.00 0.00 0.00 49 1019.4
20260906050519 71 0.0 1.0 0.00 0.00 0.00 50 1018.8
20260906045519 70 0.0 1.0 0.00 0.00 0.00 50 1018.2
20260906044519 71 0.0 0.0 0.00 0.00 0.00 50 1018.2
20260906043520 72 0.0 0.0 0.00 0.00 0.00 48 1017.8
20260906042519 72 0.0 0.0 0.00 0.00 0.00 48 1017.8
20260906041519 72 0.0 0.0 0.00 0.00 0.00 48 1017.6
20260906040519 73 0.0 0.0 0.00 0.00 0.00 47 1017.1
20260906035519 74 0.0 1.0 0.00 0.00 0.00 46 1017.1
20260906034519 75 0.0 1.0 0.00 0.00 0.00 43 1017.5
20260906033539 75 0.0 0.0 0.00 0.00 0.00 42 1016.5
20260906032519 76 0.0 1.0 0.00 0.00 0.00 41 1016.3
20260906031519 76 0.0 0.0 0.00 0.00 0.00 40 1016.3
20260906030519 77 0.0 0.0 0.00 0.00 0.00 38 1015.1
20260906025519 77 0.0 0.0 0.00 0.00 0.00 39 1015.1
20260906024519 78 0.0 1.0 0.00 0.00 0.00 38 1014.9
20260906023519 78 0.0 0.0 0.00 0.00 0.00 38 1013.9
20260906022519 78 0.0 0.0 0.00 0.00 0.00 37 1013.9
20260906021519 79 0.0 0.0 0.00 0.00 0.00 36 1013.9
20260906020519 80 0.0 0.0 0.00 0.00 0.00 34 1013.0
20260906015519 80 0.0 1.0 0.00 0.00 0.00 34 1013.3
20260906014519 81 0.0 1.0 0.00 0.00 0.00 33 1013.1
20260906013519 81 0.0 1.0 0.00 0.00 0.00 32 1012.8
20260906012519 81 0.0 0.0 0.00 0.00 0.00 31 1012.7
20260906011519 82 0.0 2.0 0.00 0.00 0.00 31 1013.1
20260906010559 82 338 2.0 6.0 0.00 0.00 0.00 31 1013.3
20260906005519 82 0.0 3.0 0.00 0.00 0.00 31 1013.2
20260906004519 83 315 1.0 3.0 0.00 0.00 0.00 30 1013.2
20260906003519 84 293 1.0 2.0 0.00 0.00 0.00 29 1013.5
20260906002519 85 315 1.0 5.0 0.00 0.00 0.00 29 1013.3
20260906001519 86 293 2.0 7.0 0.00 0.00 0.00 27 1013.6
20260906000519 87 315 2.0 6.0 0.00 0.00 0.00 26 1014.0
20260905235519 88 315 1.0 3.0 0.00 0.00 0.00 25 1013.9
20260905234519 88 0.0 1.0 0.00 0.00 0.00 31 1014.4
20260905233519 88 0.0 0.0 0.00 0.00 0.00 27 1014.1
20260905232519 89 0.0 0.0 0.00 0.00 0.00 26 1014.3
20260905231519 90 0.0 0.0 0.00 0.00 0.00 26 1014.1
20260905230519 90 0.0 0.0 0.00 0.00 0.00 23 1013.8
20260905225518 90 0.0 3.0 0.00 0.00 0.00 24 1013.8
20260905224519 91 0.0 4.0 0.00 0.00 0.00 21 1014.0
20260905223518 92 0.0 2.0 0.00 0.00 0.00 21 1014.3
20260905222518 93 0.0 2.0 0.00 0.00 0.00 20 1014.3
20260905221518 93 0.0 2.0 0.00 0.00 0.00 20 1014.3
20260905220518 93 158 1.0 5.0 0.00 0.00 0.00 20 1014.7
20260905215519 94 135 1.0 3.0 0.00 0.00 0.00 20 1015.1
20260905214539 95 203 1.0 4.0 0.00 0.00 0.00 21 1015.3
20260905213518 95 248 1.0 4.0 0.00 0.00 0.00 20 1015.4
20260905212519 95 0.0 2.0 0.00 0.00 0.00 19 1015.5
20260905211521 95 0.0 2.0 0.00 0.00 0.00 18 1015.9
20260905210521 96 0.0 1.0 0.00 0.00 0.00 17 1015.9
20260905205521 97 135 1.0 4.0 0.00 0.00 0.00 18 1016.4
20260905204541 97 0.0 3.0 0.00 0.00 0.00 19 1016.6
20260905203540 97 203 1.0 4.0 0.00 0.00 0.00 18 1016.6
20260905202541 97 0.0 1.0 0.00 0.00 0.00 19 1016.8
20260905201520 97 203 1.0 3.0 0.00 0.00 0.00 16 1016.7
20260905200520 96 0.0 1.0 0.00 0.00 0.00 18 1016.9
20260905195520 97 225 1.0 3.0 0.00 0.00 0.00 17 1017.3
20260905194520 97 0.0 3.0 0.00 0.00 0.00 18 1017.4
20260905193522 96 248 2.0 4.0 0.00 0.00 0.00 17 1017.4
20260905192520 97 0.0 2.0 0.00 0.00 0.00 18 1017.5
20260905191520 96 225 1.0 6.0 0.00 0.00 0.00 17 1017.6
20260905190520 95 225 1.0 3.0 0.00 0.00 0.00 18 1017.4
20260905185520 95 0.0 2.0 0.00 0.00 0.00 18 1017.4
20260905184520 94 135 2.0 4.0 0.00 0.00 0.00 20 1017.7
20260905183521 94 135 1.0 2.0 0.00 0.00 0.00 21 1017.8
20260905182540 94 0.0 1.0 0.00 0.00 0.00 21 1017.8
20260905181520 93 0.0 2.0 0.00 0.00 0.00 22 1018.1
20260905180520 93 0.0 1.0 0.00 0.00 0.00 20 1018.2
20260905175520 95 0.0 1.0 0.00 0.00 0.00 20 1018.6
20260905174520 92 0.0 2.0 0.00 0.00 0.00 25 1018.5
20260905173521 92 0.0 1.0 0.00 0.00 0.00 24 1018.3
20260905172520 91 0.0 2.0 0.00 0.00 0.00 21 1018.6
20260905171540 92 0.0 0.0 0.00 0.00 0.00 22 1018.7
20260905170520 92 158 1.0 3.0 0.00 0.00 0.00 22 1018.7
20260905165520 91 158 1.0 2.0 0.00 0.00 0.00 23 1018.7
20260905164540 89 0.0 0.0 0.00 0.00 0.00 23 1018.3
20260905163520 89 0.0 1.0 0.00 0.00 0.00 27 1018.4
20260905162520 88 0.0 1.0 0.00 0.00 0.00 30 1018.9
20260905161520 87 203 1.0 2.0 0.00 0.00 0.00 29 1018.6
20260905160520 87 0.0 2.0 0.00 0.00 0.00 29 1018.6
20260905155520 85 0.0 1.0 0.00 0.00 0.00 31 1018.3
20260905154520 84 0.0 2.0 0.00 0.00 0.00 35 1018.4
20260905153540 83 0.0 1.0 0.00 0.00 0.00 35 1018.2
20260905152520 82 0.0 1.0 0.00 0.00 0.00 39 1018.2
20260905151520 80 0.0 1.0 0.00 0.00 0.00 40 1017.9
20260905150520 78 0.0 1.0 0.00 0.00 0.00 44 1017.7
20260905145520 75 0.0 1.0 0.00 0.00 0.00 48 1017.8
20260905144520 73 0.0 1.0 0.00 0.00 0.00 53 1017.7
20260905143520 69 0.0 0.0 0.00 0.00 0.00 64 1017.0
20260905142520 67 0.0 0.0 0.00 0.00 0.00 67 1017.1
20260905141520 65 0.0 0.0 0.00 0.00 0.00 68 1016.6
20260905140520 63 0.0 0.0 0.00 0.00 0.00 73 1016.3
20260905135520 62 0.0 0.0 0.00 0.00 0.00 70 1016.5
20260905134520 61 0.0 0.0 0.00 0.00 0.00 73 1016.3
20260905133520 60 0.0 0.0 0.00 0.00 0.00 76 1016.3
20260905132520 59 0.0 0.0 0.00 0.00 0.00 75 1016.1
20260905131520 58 0.0 0.0 0.00 0.00 0.00 75 1015.8
20260905130520 58 0.0 0.0 0.00 0.00 0.00 75 1015.6
20260905125520 58 0.0 0.0 0.00 0.00 0.00 73 1015.7
20260905124540 58 0.0 0.0 0.00 0.00 0.00 74 1015.6
20260905123520 58 0.0 0.0 0.00 0.00 0.00 71 1015.5
20260905122520 59 0.0 0.0 0.00 0.00 0.00 71 1015.8
20260905121520 59 0.0 0.0 0.00 0.00 0.00 70 1015.7
20260905120520 59 0.0 0.0 0.00 0.00 0.00 69 1015.9
20260905115521 60 0.0 0.0 0.00 0.00 0.00 69 1016.1
20260905114520 61 0.0 0.0 0.00 0.00 0.00 67 1016.1
20260905113520 61 0.0 0.0 0.00 0.00 0.00 66 1016.1
20260905112519 61 0.0 0.0 0.00 0.00 0.00 67 1016.7